When you browse on this site, cookies collect data to enhance your experience and personalize the content and advertising you see.
Visit our Privacy Policy to learn more. By continuing to use the site, you agree to this use of cookies and data.
  • In Austria
  • List of Countries
  • For 7 days
  • Water Temperature
  • Weather Map
  • News
  • Weather Widgets
  • user-avatar
    Login

    Hourly Weather Huautla

    Today, 14 November, Thursday

    Time Temperature Precipitation Wind Pressure Humidity
    00:00 +12°C° 0 mm 0 mps 724 mmHg 90%
    01:00 +12°C° 0 mm 0 mps 724 mmHg 90%
    02:00 +12°C° 0 mm 0 mps 724 mmHg 91%
    03:00 +12°C° 0 mm 0 mps 724 mmHg 91%
    04:00 +13°C° 0 mm 1 mps 724 mmHg 91%
    05:00 +13°C° 0 mm 1 mps 724 mmHg 91%
    06:00 +15°C° 0 mm 1 mps 724 mmHg 86%
    07:00 +16°C° 0 mm 1 mps 725 mmHg 82%
    08:00 +19°C° 0 mm 1 mps 725 mmHg 78%
    09:00 +21°C° 0 mm 1 mps 725 mmHg 76%
    10:00 +22°C° 0 mm 1 mps 725 mmHg 74%
    11:00 +24°C° 0 mm 1 mps 725 mmHg 71%
    12:00 +24°C° 0 mm 1 mps 724 mmHg 72%
    13:00 +24°C° 0 mm 1 mps 724 mmHg 73%
    14:00 +24°C° 0 mm 1 mps 723 mmHg 74%
    15:00 +23°C° 0 mm 1 mps 724 mmHg 79%
    16:00 +22°C° 0 mm 1 mps 724 mmHg 84%
    17:00 +21°C° 0 mm 1 mps 725 mmHg 89%
    18:00 +20°C° 0.4 mm 1 mps 726 mmHg 92%
    19:00 +20°C° 0.4 mm 1 mps 726 mmHg 94%
    20:00 +19°C° 0.4 mm 1 mps 727 mmHg 96%
    21:00 +19°C° 0.7 mm 1 mps 727 mmHg 97%
    22:00 +18°C° 0.7 mm 2 mps 728 mmHg 97%
    23:00 +17°C° 0.7 mm 2 mps 728 mmHg 98%

    Tomorrow, 15 November, Friday

    Time Temperature Precipitation Wind Pressure Humidity
    00:00 +17°C° 0.5 mm 2 mps 727 mmHg 97%
    01:00 +16°C° 0.5 mm 2 mps 727 mmHg 96%
    02:00 +15°C° 0.5 mm 2 mps 727 mmHg 96%
    03:00 +14°C° 0.1 mm 2 mps 727 mmHg 95%
    04:00 +14°C° 0.1 mm 2 mps 728 mmHg 94%
    05:00 +14°C° 0.1 mm 2 mps 728 mmHg 93%
    06:00 +14°C° 0.1 mm 2 mps 729 mmHg 92%
    07:00 +14°C° 0.1 mm 2 mps 729 mmHg 92%
    08:00 +14°C° 0.1 mm 1 mps 730 mmHg 91%
    09:00 +14°C° 0 mm 1 mps 730 mmHg 88%
    10:00 +15°C° 0 mm 1 mps 730 mmHg 86%
    11:00 +16°C° 0 mm 1 mps 730 mmHg 83%
    12:00 +16°C° 0 mm 1 mps 729 mmHg 81%
    13:00 +18°C° 0 mm 1 mps 729 mmHg 79%
    14:00 +17°C° 0 mm 2 mps 728 mmHg 78%
    15:00 +18°C° 0 mm 1 mps 728 mmHg 80%
    16:00 +16°C° 0 mm 1 mps 728 mmHg 82%
    17:00 +16°C° 0 mm 1 mps 728 mmHg 85%
    18:00 +14°C° 0 mm 0 mps 729 mmHg 85%
    19:00 +14°C° 0 mm 0 mps 729 mmHg 85%
    20:00 +14°C° 0 mm 0 mps 729 mmHg 86%
    21:00 +14°C° 0 mm 0 mps 729 mmHg 86%
    22:00 +13°C° 0 mm 0 mps 729 mmHg 87%
    23:00 +13°C° 0 mm 0 mps 728 mmHg 88%

    Day after tomorrow, 16 November, Saturday

    Time Temperature Precipitation Wind Pressure Humidity
    00:00 +13°C° 0 mm 0 mps 728 mmHg 87%
    01:00 +13°C° 0 mm 0 mps 727 mmHg 87%
    02:00 +13°C° 0 mm 0 mps 727 mmHg 86%
    03:00 +13°C° 0 mm 0 mps 727 mmHg 88%
    04:00 +12°C° 0 mm 0 mps 727 mmHg 90%
    05:00 +11°C° 0 mm 0 mps 727 mmHg 92%
    06:00 +12°C° 0 mm 0 mps 727 mmHg 89%
    07:00 +15°C° 0 mm 1 mps 727 mmHg 86%
    08:00 +16°C° 0 mm 1 mps 728 mmHg 83%
    09:00 +18°C° 0 mm 1 mps 727 mmHg 80%
    10:00 +19°C° 0 mm 1 mps 727 mmHg 77%
    11:00 +20°C° 0 mm 1 mps 726 mmHg 74%
    12:00 +20°C° 0 mm 1 mps 725 mmHg 76%
    13:00 +20°C° 0 mm 1 mps 725 mmHg 77%
    14:00 +20°C° 0 mm 1 mps 724 mmHg 79%
    15:00 +19°C° 0 mm 1 mps 724 mmHg 82%
    16:00 +19°C° 0 mm 1 mps 724 mmHg 86%
    17:00 +16°C° 0 mm 0 mps 724 mmHg 89%
    18:00 +15°C° 0 mm 0 mps 725 mmHg 90%
    19:00 +15°C° 0 mm 0 mps 725 mmHg 91%
    20:00 +14°C° 0 mm 0 mps 725 mmHg 92%
    21:00 +14°C° 0 mm 0 mps 725 mmHg 93%
    22:00 +14°C° 0 mm 0 mps 725 mmHg 93%
    23:00 +14°C° 0 mm 0 mps 724 mmHg 94%

    17 November, Sunday

    Time Temperature Precipitation Wind Pressure Humidity
    00:00 +14°C° 0 mm 0 mps 724 mmHg 94%
    01:00 +14°C° 0 mm 0 mps 723 mmHg 94%
    02:00 +14°C° 0 mm 0 mps 723 mmHg 94%
    03:00 +13°C° 0 mm 0 mps 723 mmHg 94%
    04:00 +13°C° 0 mm 0 mps 723 mmHg 94%
    05:00 +13°C° 0 mm 0 mps 723 mmHg 94%
    06:00 +15°C° 0 mm 0 mps 723 mmHg 90%
    07:00 +16°C° 0 mm 0 mps 723 mmHg 87%
    08:00 +18°C° 0 mm 0 mps 724 mmHg 83%
    09:00 +21°C° 0 mm 1 mps 723 mmHg 81%
    10:00 +22°C° 0 mm 1 mps 723 mmHg 78%
    11:00 +23°C° 0 mm 2 mps 723 mmHg 76%
    12:00 +23°C° 0 mm 2 mps 722 mmHg 77%
    13:00 +23°C° 0 mm 2 mps 721 mmHg 79%
    14:00 +23°C° 0 mm 2 mps 721 mmHg 81%
    15:00 +23°C° 0 mm 1 mps 721 mmHg 83%
    16:00 +22°C° 0 mm 1 mps 722 mmHg 86%
    17:00 +21°C° 0 mm 1 mps 722 mmHg 89%
    18:00 +19°C° 0 mm 0 mps 723 mmHg 90%
    19:00 +19°C° 0 mm 0 mps 723 mmHg 91%
    20:00 +18°C° 0 mm 0 mps 724 mmHg 92%
    21:00 +18°C° 0 mm 0 mps 724 mmHg 91%
    22:00 +18°C° 0 mm 0 mps 724 mmHg 91%
    23:00 +18°C° 0 mm 0 mps 724 mmHg 91%

    18 November, Monday

    Time Temperature Precipitation Wind Pressure Humidity
    00:00 +19°C° 0 mm 1 mps 723 mmHg 92%
    01:00 +19°C° 0 mm 1 mps 723 mmHg 92%
    02:00 +19°C° 0 mm 1 mps 722 mmHg 92%
    03:00 +19°C° 0 mm 1 mps 722 mmHg 92%
    04:00 +18°C° 0 mm 1 mps 723 mmHg 92%
    05:00 +18°C° 0 mm 1 mps 723 mmHg 92%
    06:00 +19°C° 0 mm 1 mps 723 mmHg 89%
    07:00 +18°C° 0 mm 0 mps 724 mmHg 86%
    08:00 +20°C° 0 mm 0 mps 724 mmHg 83%
    09:00 +23°C° 0 mm 1 mps 724 mmHg 80%
    10:00 +23°C° 0 mm 1 mps 723 mmHg 78%
    11:00 +24°C° 0 mm 2 mps 723 mmHg 75%
    12:00 +24°C° 0 mm 1 mps 722 mmHg 75%
    13:00 +24°C° 0 mm 1 mps 721 mmHg 75%
    14:00 +24°C° 0 mm 1 mps 721 mmHg 76%
    15:00 +23°C° 0 mm 1 mps 721 mmHg 80%
    16:00 +22°C° 0 mm 1 mps 721 mmHg 84%
    17:00 +21°C° 0 mm 1 mps 721 mmHg 88%
    18:00 +20°C° 0 mm 1 mps 721 mmHg 90%
    19:00 +20°C° 0 mm 1 mps 722 mmHg 92%
    20:00 +19°C° 0 mm 1 mps 722 mmHg 94%
    21:00 +19°C° 0 mm 1 mps 722 mmHg 94%
    22:00 +19°C° 0 mm 1 mps 722 mmHg 94%
    23:00 +16°C° 0 mm 0 mps 722 mmHg 94%

    19 November, Tuesday

    Time Temperature Precipitation Wind Pressure Humidity
    00:00 +17°C° 0 mm 0 mps 722 mmHg 94%
    01:00 +17°C° 0 mm 0 mps 722 mmHg 94%
    02:00 +17°C° 0 mm 0 mps 722 mmHg 94%
    03:00 +17°C° 0 mm 0 mps 723 mmHg 93%
    04:00 +17°C° 0 mm 0 mps 723 mmHg 93%
    05:00 +18°C° 0 mm 0 mps 723 mmHg 92%
    06:00 +18°C° 0 mm 0 mps 724 mmHg 91%
    07:00 +19°C° 0 mm 0 mps 724 mmHg 89%
    08:00 +19°C° 0 mm 0 mps 725 mmHg 88%
    09:00 +22°C° 0 mm 1 mps 725 mmHg 82%
    10:00 +24°C° 0 mm 1 mps 725 mmHg 77%
    11:00 +25°C° 0 mm 1 mps 724 mmHg 71%
    12:00 +25°C° 0 mm 1 mps 724 mmHg 71%
    13:00 +25°C° 0 mm 1 mps 724 mmHg 71%
    14:00 +25°C° 0 mm 1 mps 723 mmHg 71%
    15:00 +24°C° 0.1 mm 1 mps 724 mmHg 77%
    16:00 +22°C° 0.1 mm 1 mps 724 mmHg 82%
    17:00 +21°C° 0.1 mm 1 mps 725 mmHg 88%
    18:00 +21°C° 0.2 mm 1 mps 725 mmHg 90%
    19:00 +20°C° 0.2 mm 1 mps 726 mmHg 91%
    20:00 +18°C° 0.2 mm 0 mps 726 mmHg 93%
    21:00 +18°C° 0.3 mm 0 mps 726 mmHg 93%
    22:00 +18°C° 0.3 mm 0 mps 726 mmHg 92%
    23:00 +18°C° 0.3 mm 0 mps 726 mmHg 92%
    Show more